Theta_e
325 324 321 322 317 316 319 321 320 323 322 323 328 325 328 330 330 324 330 331 329 322 316 331 325 314 311 311 317 331 326 315 312 313 325 330 327 325 323 327 329 328 330 325 324 319 318 327 325
325 323 321 321 317 319 318 316 323 321 324 326 327 328 326 331 332 331 331 330 328 321 317 329 322 315 312 312 312 317 317 316 319 311 319 323 323 320 320 321 323 329 329 330 327 320 322 324 322
324 320 322 313 313 319 319 315 320 322 324 323 327 327 328 330 331 329 331 329 328 321 317 325 322 317 315 314 313 313 314 315 322 313 311 313 314 314 312 312 319 328 328 323 322 317 319 319 316
320 317 319 314 318 318 316 315 319 322 321 322 327 327 329 327 330 329 330 328 327 320 318 323 323 319 317 317 315 314 315 314 324 328 324 316 315 315 313 313 318 318 317 314 313 315 315 316 315
316 317 316 316 318 317 313 316 321 317 320 324 324 327 330 330 331 329 329 328 326 322 318 321 323 321 319 318 317 316 316 315 321 327 328 326 328 324 319 314 314 313 313 313 314 314 314 315 316
315 316 318 321 318 315 316 319 320 318 319 323 325 329 330 331 330 329 329 328 326 323 319 319 321 323 320 319 319 317 316 316 316 315 316 320 326 320 316 315 313 313 314 314 313 314 315 316 316
313 313 316 317 318 316 319 320 317 317 318 322 325 326 329 331 331 330 330 330 326 323 320 319 320 323 322 320 320 319 318 317 316 316 315 315 318 317 317 316 314 315 315 315 314 315 316 316 316
317 311 313 313 316 317 316 319 319 319 317 321 325 324 328 328 332 331 331 330 327 324 321 320 319 320 324 321 320 320 319 318 317 316 315 315 316 316 316 316 316 316 316 315 315 315 316 316 316
316 313 313 315 314 315 315 316 316 318 319 324 325 322 322 327 332 333 333 332 329 325 322 320 319 320 323 323 322 321 320 320 319 318 317 316 316 316 316 316 316 317 317 316 316 315 316 316 316
313 312 313 313 313 314 314 316 316 316 318 321 321 323 323 328 331 334 333 333 332 327 324 322 320 320 320 323 322 322 321 321 320 320 319 318 317 316 316 317 317 317 317 316 316 316 316 316 316
312 312 312 314 314 314 314 314 316 316 316 318 320 321 323 329 331 332 333 332 331 330 327 324 322 321 320 322 323 323 322 322 322 321 320 320 319 318 317 316 317 317 317 317 317 316 316 317 317
314 314 313 313 313 314 313 314 314 317 318 318 318 319 321 324 325 328 332 332 332 333 331 327 325 323 321 321 322 323 323 323 323 323 322 322 321 320 319 317 317 317 318 317 317 317 317 318 318
313 313 312 313 313 314 314 313 313 315 317 317 318 320 321 322 322 325 327 330 331 332 332 332 331 326 324 323 322 322 323 323 323 323 323 323 323 322 320 318 317 317 317 318 317 317 318 318 318
314 316 312 312 312 313 312 313 313 315 316 316 316 319 322 321 319 323 326 328 329 329 329 329 329 330 326 325 324 323 323 323 323 323 323 323 323 323 322 320 318 317 317 318 318 318 318 318 319
315 315 312 312 312 312 313 313 312 315 315 316 317 320 322 322 322 319 319 324 327 328 330 330 328 327 329 327 327 326 325 324 323 323 323 323 324 323 323 323 320 319 318 318 318 318 318 319 319
311 313 314 313 310 312 313 314 313 315 315 316 319 321 323 322 320 321 323 323 325 328 329 330 331 329 326 326 329 329 328 328 328 326 324 325 325 326 325 324 323 321 320 319 318 318 318 318 319
309 312 313 314 310 310 312 313 312 314 315 316 319 321 321 322 322 321 321 321 322 326 329 331 331 331 329 326 323 324 326 327 327 327 327 327 327 327 327 326 325 322 322 321 320 319 318 318 319
311 311 310 315 311 309 310 310 309 310 311 314 316 320 321 321 318 318 318 320 321 324 329 330 330 330 330 329 327 325 328 327 327 327 326 326 326 325 326 326 326 325 323 323 322 321 320 319 319
310 310 310 309 309 310 308 308 309 310 309 309 313 316 318 320 318 319 320 320 322 322 322 328 329 330 331 330 329 328 324 327 327 326 327 326 326 325 325 325 324 325 325 324 323 323 322 321 321
308 309 309 309 308 309 309 308 308 307 308 310 312 313 315 317 317 318 319 320 321 319 319 321 321 327 328 327 327 328 327 325 325 327 326 327 326 326 325 324 325 323 324 324 324 324 323 323 322
308 308 308 310 308 308 308 307 307 306 308 310 312 312 312 314 316 317 317 318 317 318 317 317 318 320 321 324 326 328 329 328 327 326 326 326 326 326 325 325 324 324 323 323 323 323 323 324 324
308 307 308 309 308 309 307 309 306 305 304 304 309 312 313 313 314 314 315 315 314 314 313 313 314 318 320 323 326 327 328 327 327 326 325 323 324 324 325 324 323 324 323 323 323 323 323 324 324
308 306 307 308 307 306 306 305 306 305 306 305 306 311 314 315 314 314 313 314 314 313 313 312 312 314 316 319 323 326 328 328 329 329 328 328 327 326 326 325 324 323 322 322 323 323 323 323 324
304 305 304 303 304 307 306 305 305 305 307 307 308 312 311 311 311 312 312 312 312 312 313 313 313 313 314 315 319 324 327 328 329 329 329 329 329 326 326 324 323 323 321 321 321 322 322 322 323
305 305 306 307 306 308 303 305 309 307 305 306 308 309 310 311 310 311 312 312 311 311 312 313 313 313 313 313 315 318 323 328 329 329 330 330 327 326 326 324 323 324 322 322 322 323 324 324 324
304 306 307 308 307 306 304 306 307 306 309 309 308 309 309 310 311 311 311 311 311 311 312 312 312 312 312 313 314 317 321 326 327 328 329 330 330 327 326 324 322 321 322 321 320 322 323 324 324
305 306 305 305 294 304 304 303 304 306 304 306 306 307 310 310 311 311 311 311 311 311 311 311 311 312 312 314 316 316 318 321 322 323 324 326 326 325 325 324 322 321 321 319 319 321 322 323 323
306 306 309 305 304 306 304 304 305 305 305 305 304 306 309 310 311 311 311 311 311 311 311 311 311 312 312 313 313 312 312 311 312 314 319 322 327 325 324 322 320 320 319 320 320 321 322 321 321
306 307 305 306 305 306 303 304 301 306 304 305 304 307 309 310 311 310 310 310 310 310 310 311 311 311 311 311 311 311 310 310 310 310 309 310 311 321 317 322 321 320 319 320 320 321 319 320 318
306 308 308 309 306 304 305 305 303 302 301 304 305 307 309 310 310 310 310 310 310 310 310 311 313 313 313 313 313 313 312 312 310 309 309 309 310 313 317 323 319 319 318 320 318 317 318 317 314
Wind_Speed
7 6 6 3 4 5 0 2 1 3 3 3 13 5 6 2 4 3 17 17 16 14 14 14 10 10 12 12 14 13 10 12 12 13 14 12 11 10 8 10 12 9 12 15 14 13 14 16 15
7 6 3 2 4 3 4 2 5 3 5 16 13 9 3 1 3 9 21 19 16 14 14 14 12 11 11 12 12 11 11 13 12 12 13 12 10 9 7 7 10 15 14 15 15 14 14 14 13
7 5 1 4 3 4 4 3 5 7 12 4 5 4 3 3 4 23 16 20 18 15 14 13 13 12 11 11 11 10 10 12 12 13 12 10 9 8 8 10 14 15 14 14 12 12 12 12 14
4 1 4 4 3 3 4 3 6 11 2 5 8 6 3 3 11 19 21 20 18 15 14 13 12 12 11 11 11 10 9 11 12 11 11 11 11 10 10 11 13 13 11 10 11 11 11 12 13
3 1 3 3 3 3 4 3 17 5 6 8 5 5 2 7 18 17 20 19 16 16 15 13 12 11 10 10 9 10 9 11 12 11 12 12 13 10 9 9 10 11 10 10 10 10 11 12 13
1 2 3 2 4 3 3 9 11 5 8 9 6 9 6 16 13 18 19 19 17 15 15 14 12 11 10 9 8 8 7 9 9 9 9 9 9 7 8 8 9 10 9 9 9 9 11 12 12
4 4 4 4 4 4 3 14 6 7 7 6 9 7 7 18 14 18 19 19 18 16 15 15 13 12 10 9 8 8 7 7 6 6 6 6 6 5 5 6 7 7 7 7 8 8 9 10 11
2 5 4 3 4 5 5 11 6 10 6 6 11 6 5 23 20 20 19 19 19 17 16 16 15 13 12 10 8 7 6 6 5 4 4 4 4 5 5 5 5 4 4 5 6 7 7 8 10
3 4 2 5 6 5 8 6 6 7 7 10 10 4 4 24 23 23 23 22 21 20 19 17 16 15 13 11 9 8 7 6 4 3 2 2 2 2 2 3 4 3 2 3 4 5 6 7 9
3 3 8 5 4 3 5 8 15 7 9 9 10 10 7 24 27 28 28 27 25 24 22 20 17 16 15 13 11 9 8 6 5 3 2 2 1 1 2 2 2 3 1 1 2 3 4 6 6
3 4 5 3 5 4 4 7 14 11 3 14 21 17 13 25 28 29 29 28 25 23 23 21 19 18 17 15 13 11 10 8 6 5 3 2 2 1 2 2 2 2 2 1 1 2 3 4 5
2 6 5 1 1 2 3 6 8 15 9 15 17 18 19 26 30 31 31 29 26 23 20 20 20 20 18 17 15 13 12 10 8 7 6 4 3 2 2 3 3 3 2 2 2 2 1 2 3
4 2 4 5 4 5 6 11 6 17 11 6 14 19 21 24 26 29 27 26 24 24 22 21 20 22 20 19 17 16 14 12 11 10 8 7 5 4 3 4 4 4 4 4 4 3 3 3 3
8 9 6 3 4 2 3 2 4 10 15 9 13 20 23 24 23 27 27 27 26 23 21 20 21 20 21 21 19 18 17 15 14 13 11 10 8 8 6 6 5 6 7 7 6 6 6 6 5
5 1 1 2 1 1 1 2 7 7 19 12 15 20 23 25 24 26 25 27 25 25 21 21 19 19 22 21 20 19 18 18 18 16 15 13 12 11 10 9 8 7 8 9 9 9 9 8 8
6 3 6 2 2 1 5 6 6 9 12 18 19 22 24 25 25 25 26 26 25 25 24 22 23 21 20 22 22 20 20 19 18 17 17 17 15 14 13 13 11 11 10 10 11 11 12 11 11
4 2 3 3 6 0 3 6 4 11 12 17 20 24 25 26 27 27 27 27 26 26 26 27 26 25 23 21 21 23 21 21 19 19 18 18 18 17 16 15 14 14 14 13 13 13 14 14 14
4 5 4 6 2 4 4 9 5 4 12 18 18 22 27 28 30 26 25 27 27 28 30 29 28 28 27 26 24 22 24 23 23 22 21 20 19 19 18 17 16 17 18 18 17 16 16 16 17
5 4 4 3 4 4 6 7 10 9 7 12 21 23 28 32 29 29 29 28 28 28 30 34 32 32 31 31 31 30 27 27 27 26 24 22 21 20 20 20 18 19 20 21 20 20 20 20 20
4 6 5 2 1 4 2 8 12 5 10 19 20 26 30 33 32 31 32 30 30 29 30 32 33 35 34 34 33 32 30 26 24 27 28 27 25 23 23 22 22 20 22 22 22 23 22 22 22
4 5 4 4 1 0 2 7 8 6 14 24 27 27 26 31 35 33 33 31 30 33 32 31 32 32 32 33 33 33 33 32 29 28 29 30 28 27 26 25 24 24 23 22 23 24 25 26 26
6 6 4 3 3 4 2 6 6 6 9 6 23 30 34 36 35 35 35 33 32 32 30 32 34 33 31 31 33 33 32 30 28 25 21 21 22 25 26 23 25 26 26 27 25 24 25 27 29
7 5 5 2 3 1 1 3 6 2 6 8 18 34 37 39 40 40 39 34 30 29 27 29 31 31 31 31 32 33 34 31 28 26 23 20 18 19 21 23 25 25 26 26 27 28 28 30 33
8 6 7 4 2 5 7 6 5 6 8 8 17 29 30 32 36 36 35 34 37 36 32 29 30 31 31 29 30 33 34 33 31 28 27 23 18 19 20 18 20 20 22 22 25 27 28 30 33
5 8 1 2 1 7 3 4 12 7 9 10 10 14 12 12 19 21 24 27 30 34 32 31 31 32 32 30 29 29 30 33 33 32 31 28 24 23 22 20 21 23 20 23 23 23 27 27 29
8 8 5 7 4 4 2 7 6 11 24 22 21 17 16 12 11 14 16 16 18 27 31 30 30 30 31 32 29 27 27 30 31 30 30 28 27 24 21 22 19 22 18 22 22 23 23 24 23
6 6 8 6 2 3 5 7 8 14 13 19 24 16 21 19 10 10 12 13 15 18 21 24 24 24 25 26 26 26 27 28 28 28 27 26 21 21 23 22 17 19 18 20 21 21 20 22 19
8 10 4 1 3 4 5 5 6 7 12 7 7 18 18 20 15 11 10 12 12 14 15 17 18 18 20 22 23 24 27 27 26 25 24 22 20 21 21 20 18 18 18 18 18 19 17 17 15
4 7 2 5 5 5 1 6 8 14 7 8 10 15 15 18 17 14 13 13 15 16 16 16 17 18 19 21 20 20 20 20 21 22 22 22 21 17 19 19 19 20 18 18 18 15 15 13 14
4 10 12 7 5 2 3 8 3 4 8 11 9 9 12 14 15 14 14 14 15 15 15 13 14 14 15 15 14 14 15 16 16 16 16 16 15 17 17 19 17 16 17 12 11 13 10 6 6
Wind_Direction
296 317 331 330 55 66 119 186 253 118 147 156 146 157 178 118 159 202 148 159 155 146 139 139 133 110 112 110 116 105 99 88 99 120 131 133 133 128 114 110 97 104 85 82 82 82 78 76 73
293 314 326 83 84 71 266 238 166 199 144 126 115 112 96 155 138 149 150 159 155 149 148 146 136 119 118 115 119 109 100 105 102 112 122 125 126 124 127 124 102 97 91 87 89 83 78 72 68
283 308 306 91 101 166 206 223 162 140 132 126 118 116 129 149 154 156 157 158 155 157 154 150 142 129 125 119 116 115 101 103 102 102 108 117 129 132 131 115 104 101 96 91 93 84 79 64 56
278 244 57 88 198 249 204 190 156 142 218 174 151 88 115 158 161 163 157 160 156 163 160 157 149 138 131 122 118 120 106 104 101 94 96 96 104 104 100 101 106 105 97 89 83 78 70 59 54
252 76 68 86 249 257 255 218 161 162 157 153 168 151 107 151 158 164 162 162 164 167 167 165 157 148 138 128 118 117 107 109 110 117 110 95 109 107 93 90 97 98 98 88 78 73 70 66 63
199 89 76 212 245 264 256 187 160 167 160 157 129 129 141 155 162 167 169 167 172 177 174 173 168 161 151 139 126 118 109 103 104 101 108 119 119 113 98 91 96 103 96 86 76 69 70 68 62
140 94 193 151 253 317 217 164 171 165 166 194 158 128 169 173 165 176 174 176 178 185 184 182 179 173 165 156 144 131 121 114 109 107 104 108 118 115 100 92 94 100 92 77 72 70 73 70 64
143 93 124 202 201 249 179 171 188 177 195 171 171 177 201 181 169 173 180 183 185 190 193 193 189 185 179 172 163 147 137 129 119 111 109 109 106 106 95 94 95 102 88 69 64 69 74 67 62
142 72 192 215 152 241 169 169 179 189 171 171 194 224 218 183 173 178 184 187 191 195 198 201 199 195 192 187 182 170 163 157 147 139 130 119 110 113 112 107 132 136 102 73 62 68 67 63 63
108 133 211 211 211 220 215 195 173 164 181 202 203 206 211 185 181 185 189 192 195 197 198 203 205 205 204 199 198 193 187 185 180 175 170 167 169 173 156 129 156 168 167 54 53 68 69 66 64
152 204 205 230 239 272 237 217 177 156 217 209 210 203 195 186 190 194 195 200 201 201 203 204 207 210 213 212 210 206 206 203 206 205 202 218 230 227 202 195 196 195 202 223 18 24 38 51 54
146 243 212 214 267 283 223 194 200 189 206 228 228 219 200 193 199 200 200 202 204 207 209 211 213 215 219 221 221 220 221 220 219 222 227 230 242 267 250 239 240 230 230 241 245 320 358 18 26
193 223 238 278 300 290 248 213 200 216 216 213 214 210 209 206 205 206 207 210 211 213 214 217 222 222 222 227 228 230 231 232 232 233 235 239 249 257 271 268 264 257 253 254 255 278 286 295 321
207 216 299 281 325 300 213 245 186 226 204 213 209 213 207 210 213 207 207 211 214 215 215 219 225 228 230 232 232 235 237 239 241 243 244 245 250 258 265 273 273 270 266 263 263 267 275 277 292
148 330 265 315 356 331 198 243 228 238 206 216 206 211 209 213 214 218 215 215 218 220 220 225 230 236 237 237 239 238 240 244 244 247 249 249 251 256 263 267 270 267 265 265 268 269 267 272 279
171 184 211 236 20 307 141 263 247 218 207 216 211 210 212 217 222 223 222 224 223 225 226 230 236 241 245 240 240 239 239 243 248 248 250 251 251 253 256 262 269 268 268 268 270 270 268 270 276
16 175 193 304 168 229 171 253 253 208 213 224 221 215 218 221 225 227 226 227 228 232 233 234 237 242 248 248 244 243 242 245 246 249 249 251 254 251 257 260 263 266 266 266 268 270 271 269 273
205 208 217 198 251 173 185 264 274 221 224 229 231 227 225 228 231 229 230 230 232 233 237 240 241 245 249 254 249 243 242 242 243 247 250 250 252 254 258 260 263 266 267 269 268 270 271 273 276
170 213 181 236 208 179 222 244 264 228 242 244 239 235 234 236 239 237 235 235 235 236 236 238 240 242 243 247 245 243 242 243 245 248 248 250 252 256 257 260 260 263 262 264 267 268 270 274 280
169 199 221 305 192 167 229 254 255 190 243 241 243 241 240 243 245 241 240 238 237 240 239 237 239 240 242 246 249 252 254 254 248 248 251 252 252 255 259 263 265 266 269 268 269 271 273 274 275
186 171 200 212 98 9 352 279 267 253 232 246 248 249 253 251 249 245 242 239 241 242 241 240 240 240 240 242 245 248 250 251 252 248 248 247 251 255 258 263 264 265 266 271 275 272 272 277 281
198 194 172 156 134 233 166 278 256 240 238 219 241 245 247 249 251 249 244 242 242 245 248 248 244 242 241 237 239 242 246 250 256 264 269 261 254 252 254 262 267 268 269 269 274 275 274 274 277
215 160 152 134 163 329 190 286 250 158 243 248 240 238 242 249 250 250 248 246 244 244 247 247 243 241 241 239 239 242 245 251 256 262 264 263 258 260 260 259 261 266 270 272 272 272 273 271 273
152 80 50 56 73 268 184 188 243 192 200 236 241 240 246 254 257 256 254 250 246 242 241 240 237 239 241 239 238 241 244 248 250 252 255 259 258 257 260 263 268 268 272 273 272 274 275 273 286
119 109 13 307 266 232 346 228 254 265 253 219 225 225 230 256 251 249 246 241 243 234 233 235 237 240 241 241 238 239 242 246 250 253 255 256 257 258 261 265 273 273 271 279 270 273 274 276 280
176 161 158 191 218 251 54 243 251 236 255 252 259 249 245 264 260 240 231 230 230 224 227 231 236 239 238 238 240 244 245 247 251 254 256 257 255 252 258 260 259 276 265 273 274 276 277 279 277
191 191 167 103 51 39 233 296 293 269 256 251 250 240 243 241 251 215 211 215 218 223 227 230 233 235 234 236 240 245 249 251 254 256 257 256 253 256 258 261 254 265 264 270 269 272 274 269 272
181 153 146 94 165 245 270 276 243 294 270 261 235 231 223 213 215 204 203 211 213 216 218 220 224 227 233 237 242 248 253 254 254 254 253 254 249 244 244 252 248 260 263 267 267 267 271 277 274
136 191 111 138 163 181 249 258 222 240 324 253 240 236 223 210 203 209 214 214 213 216 220 224 229 232 237 242 244 245 246 247 247 248 247 246 245 235 245 243 249 259 266 263 266 270 280 268 285
199 187 186 193 205 237 150 257 229 251 282 287 305 242 228 218 212 207 211 217 216 216 218 217 219 220 222 224 226 227 226 228 231 235 237 237 236 235 239 232 239 254 262 256 264 271 271 261 285